When you browse on this site, cookies collect data to enhance your experience and personalize the content and advertising you see.
Visit our Privacy Policy to learn more. By continuing to use the site, you agree to this use of cookies and data.
  • In Czech Republic
  • List of Countries
  • For 7 days
  • Water Temperature
  • Weather Map
  • Weather Widgets
  • user-avatar
    Login

    Hourly Weather Nzérékoré

    Today, 17 September, Tuesday

    Time Temperature Precipitation Wind Pressure Humidity
    00:00 +26°C° 0.6 mm 1 mps 744 mmHg 92%
    01:00 +26°C° 0.6 mm 1 mps 744 mmHg 94%
    02:00 +25°C° 0 mm 1 mps 744 mmHg 95%
    03:00 +25°C° 0 mm 1 mps 743 mmHg 96%
    04:00 +25°C° 0 mm 1 mps 743 mmHg 96%
    05:00 +25°C° 0.3 mm 1 mps 744 mmHg 96%
    06:00 +25°C° 0.3 mm 1 mps 744 mmHg 96%
    07:00 +25°C° 0.3 mm 1 mps 744 mmHg 96%
    08:00 +26°C° 0.1 mm 1 mps 744 mmHg 94%
    09:00 +26°C° 0.1 mm 2 mps 745 mmHg 91%
    10:00 +27°C° 0.1 mm 2 mps 745 mmHg 89%
    11:00 +28°C° 1.1 mm 2 mps 744 mmHg 86%
    12:00 +29°C° 1.1 mm 2 mps 743 mmHg 82%
    13:00 +30°C° 1.1 mm 2 mps 743 mmHg 79%
    14:00 +30°C° 1.2 mm 2 mps 742 mmHg 79%
    15:00 +30°C° 1.2 mm 2 mps 741 mmHg 80%
    16:00 +30°C° 1.2 mm 2 mps 741 mmHg 80%
    17:00 +29°C° 1.8 mm 2 mps 741 mmHg 84%
    18:00 +28°C° 1.8 mm 2 mps 742 mmHg 87%
    19:00 +27°C° 1.8 mm 1 mps 742 mmHg 91%
    20:00 +26°C° 0.6 mm 2 mps 743 mmHg 93%
    21:00 +26°C° 0.6 mm 2 mps 743 mmHg 94%
    22:00 +25°C° 0.6 mm 3 mps 744 mmHg 96%
    23:00 +25°C° 0.1 mm 3 mps 744 mmHg 96%

    Tomorrow, 18 September, Wednesday

    Time Temperature Precipitation Wind Pressure Humidity
    00:00 +25°C° 0.1 mm 2 mps 744 mmHg 96%
    01:00 +25°C° 0.1 mm 2 mps 743 mmHg 97%
    02:00 +25°C° 0.2 mm 2 mps 743 mmHg 97%
    03:00 +25°C° 0.2 mm 2 mps 743 mmHg 97%
    04:00 +25°C° 0.2 mm 2 mps 743 mmHg 97%
    05:00 +25°C° 1 mm 2 mps 743 mmHg 97%
    06:00 +24°C° 1 mm 2 mps 744 mmHg 97%
    07:00 +24°C° 1 mm 2 mps 744 mmHg 97%
    08:00 +25°C° 1.8 mm 2 mps 745 mmHg 97%
    09:00 +25°C° 1.8 mm 2 mps 745 mmHg 97%
    10:00 +25°C° 1.8 mm 1 mps 745 mmHg 97%
    11:00 +25°C° 0.8 mm 1 mps 745 mmHg 96%
    12:00 +25°C° 0.8 mm 1 mps 744 mmHg 96%
    13:00 +25°C° 0.8 mm 1 mps 744 mmHg 96%
    14:00 +26°C° 0 mm 1 mps 743 mmHg 94%
    15:00 +26°C° 0 mm 1 mps 743 mmHg 92%
    16:00 +27°C° 0 mm 1 mps 743 mmHg 91%
    17:00 +26°C° 0.1 mm 1 mps 743 mmHg 92%
    18:00 +26°C° 0.1 mm 1 mps 743 mmHg 94%
    19:00 +25°C° 0.1 mm 2 mps 744 mmHg 96%
    20:00 +25°C° 0 mm 2 mps 744 mmHg 96%
    21:00 +25°C° 0 mm 2 mps 745 mmHg 96%
    22:00 +25°C° 0 mm 2 mps 745 mmHg 96%
    23:00 +24°C° 0 mm 2 mps 745 mmHg 96%

    Day after tomorrow, 19 September, Thursday

    Time Temperature Precipitation Wind Pressure Humidity
    00:00 +24°C° 0 mm 2 mps 745 mmHg 95%
    01:00 +24°C° 0 mm 2 mps 745 mmHg 95%
    02:00 +24°C° 0 mm 2 mps 745 mmHg 95%
    03:00 +24°C° 0 mm 1 mps 745 mmHg 96%
    04:00 +24°C° 0 mm 1 mps 745 mmHg 96%
    05:00 +24°C° 0 mm 1 mps 745 mmHg 96%
    06:00 +24°C° 0 mm 1 mps 745 mmHg 96%
    07:00 +24°C° 0 mm 1 mps 746 mmHg 96%
    08:00 +25°C° 0 mm 1 mps 746 mmHg 92%
    09:00 +26°C° 0 mm 2 mps 746 mmHg 89%
    10:00 +27°C° 0 mm 2 mps 746 mmHg 85%
    11:00 +28°C° 0 mm 2 mps 745 mmHg 81%
    12:00 +30°C° 0 mm 1 mps 745 mmHg 76%
    13:00 +31°C° 0 mm 1 mps 744 mmHg 71%
    14:00 +31°C° 0 mm 1 mps 744 mmHg 70%
    15:00 +31°C° 0 mm 1 mps 743 mmHg 70%
    16:00 +31°C° 0 mm 1 mps 743 mmHg 69%
    17:00 +30°C° 0.4 mm 1 mps 743 mmHg 74%
    18:00 +29°C° 0.4 mm 1 mps 744 mmHg 80%
    19:00 +27°C° 0.4 mm 2 mps 744 mmHg 85%
    20:00 +27°C° 0.6 mm 2 mps 744 mmHg 88%
    21:00 +26°C° 0.6 mm 3 mps 745 mmHg 91%
    22:00 +25°C° 0.6 mm 3 mps 745 mmHg 94%
    23:00 +25°C° 0 mm 3 mps 745 mmHg 95%

    20 September, Friday

    Time Temperature Precipitation Wind Pressure Humidity
    00:00 +25°C° 0 mm 3 mps 745 mmHg 95%
    01:00 +24°C° 0 mm 2 mps 745 mmHg 96%
    02:00 +25°C° 0.1 mm 2 mps 745 mmHg 96%
    03:00 +25°C° 0.1 mm 2 mps 745 mmHg 96%
    04:00 +25°C° 0.1 mm 2 mps 745 mmHg 96%
    05:00 +25°C° 1.2 mm 2 mps 746 mmHg 97%
    06:00 +24°C° 1.2 mm 1 mps 746 mmHg 97%
    07:00 +24°C° 1.2 mm 1 mps 746 mmHg 98%
    08:00 +25°C° 2.9 mm 1 mps 747 mmHg 97%
    09:00 +25°C° 2.9 mm 2 mps 747 mmHg 97%
    10:00 +25°C° 2.9 mm 2 mps 747 mmHg 96%
    11:00 +26°C° 0.1 mm 2 mps 746 mmHg 91%
    12:00 +27°C° 0.1 mm 2 mps 745 mmHg 86%
    13:00 +29°C° 0.1 mm 2 mps 745 mmHg 81%
    14:00 +29°C° 0.1 mm 2 mps 744 mmHg 80%
    15:00 +29°C° 0.1 mm 2 mps 744 mmHg 78%
    16:00 +29°C° 0.1 mm 1 mps 743 mmHg 77%
    17:00 +28°C° 0.4 mm 1 mps 744 mmHg 82%
    18:00 +27°C° 0.4 mm 1 mps 744 mmHg 88%
    19:00 +26°C° 0.4 mm 1 mps 745 mmHg 93%
    20:00 +25°C° 0.1 mm 2 mps 745 mmHg 94%
    21:00 +25°C° 0.1 mm 2 mps 745 mmHg 94%
    22:00 +25°C° 0.1 mm 2 mps 746 mmHg 95%
    23:00 +24°C° 0.1 mm 2 mps 746 mmHg 95%

    21 September, Saturday

    Time Temperature Precipitation Wind Pressure Humidity
    00:00 +24°C° 0.1 mm 2 mps 746 mmHg 95%
    01:00 +24°C° 0.1 mm 2 mps 746 mmHg 95%
    02:00 +24°C° 0.3 mm 2 mps 745 mmHg 96%
    03:00 +24°C° 0.3 mm 2 mps 745 mmHg 96%
    04:00 +24°C° 0.3 mm 2 mps 745 mmHg 97%
    05:00 +24°C° 0 mm 2 mps 745 mmHg 97%
    06:00 +24°C° 0 mm 1 mps 745 mmHg 96%
    07:00 +24°C° 0 mm 1 mps 745 mmHg 96%
    08:00 +25°C° 0 mm 1 mps 745 mmHg 94%
    09:00 +25°C° 0 mm 1 mps 745 mmHg 91%
    10:00 +26°C° 0 mm 1 mps 746 mmHg 88%
    11:00 +27°C° 0 mm 1 mps 745 mmHg 84%
    12:00 +28°C° 0 mm 2 mps 745 mmHg 79%
    13:00 +30°C° 0 mm 2 mps 744 mmHg 75%
    14:00 +29°C° 0 mm 2 mps 744 mmHg 76%
    15:00 +29°C° 0 mm 1 mps 743 mmHg 78%
    16:00 +29°C° 0 mm 1 mps 743 mmHg 79%
    17:00 +28°C° 0 mm 1 mps 743 mmHg 82%
    18:00 +28°C° 0 mm 1 mps 743 mmHg 85%
    19:00 +27°C° 0 mm 1 mps 743 mmHg 88%
    20:00 +26°C° 0 mm 2 mps 744 mmHg 89%
    21:00 +26°C° 0 mm 2 mps 745 mmHg 91%
    22:00 +26°C° 0 mm 2 mps 745 mmHg 92%
    23:00 +25°C° 0.8 mm 1 mps 745 mmHg 93%

    22 September, Sunday

    Time Temperature Precipitation Wind Pressure Humidity
    00:00 +25°C° 0.8 mm 1 mps 745 mmHg 93%
    01:00 +25°C° 0.8 mm 1 mps 745 mmHg 94%
    02:00 +25°C° 0.6 mm 1 mps 744 mmHg 94%
    03:00 +25°C° 0.6 mm 1 mps 744 mmHg 94%
    04:00 +25°C° 0.6 mm 1 mps 744 mmHg 94%
    05:00 +25°C° 0 mm 1 mps 744 mmHg 94%
    06:00 +25°C° 0 mm 1 mps 744 mmHg 95%
    07:00 +25°C° 0 mm 1 mps 744 mmHg 95%
    08:00 +26°C° 0 mm 1 mps 744 mmHg 91%
    09:00 +27°C° 0 mm 1 mps 745 mmHg 86%
    10:00 +29°C° 0 mm 2 mps 745 mmHg 82%
    11:00 +29°C° 0 mm 2 mps 744 mmHg 78%
    12:00 +30°C° 0 mm 1 mps 744 mmHg 75%
    13:00 +31°C° 0 mm 1 mps 743 mmHg 72%
    14:00 +31°C° 0 mm 1 mps 743 mmHg 72%
    15:00 +31°C° 0 mm 1 mps 742 mmHg 72%
    16:00 +31°C° 0 mm 1 mps 741 mmHg 73%
    17:00 +30°C° 0.4 mm 1 mps 742 mmHg 77%
    18:00 +29°C° 0.4 mm 1 mps 742 mmHg 82%
    19:00 +28°C° 0.4 mm 1 mps 742 mmHg 86%
    20:00 +27°C° 2 mm 1 mps 743 mmHg 89%
    21:00 +26°C° 2 mm 2 mps 744 mmHg 92%
    22:00 +25°C° 2 mm 3 mps 744 mmHg 95%
    23:00 +25°C° 0.2 mm 3 mps 744 mmHg 95%
    Show more